Theta_e
319 320 320 320 320 320 321 322 324 326 327 326 325 323 320 318 314 309 309 309 309 309 310 310 310 309 309 308 308 310 314 316 313 311 311 311 311 310 311 312 313 316 318 320 321 321 322 322 321 321 322 323 323 325 326 328 330 331 332 332 333 333
318 319 319 320 320 320 321 322 324 326 327 326 326 324 321 318 313 309 308 309 308 309 309 310 310 310 309 309 308 309 313 315 314 312 311 311 311 310 311 312 314 317 320 322 323 322 322 320 320 319 319 320 323 326 329 330 332 332 332 332 332 332
318 319 319 319 319 320 321 321 323 325 326 327 326 324 322 318 312 308 308 309 309 309 309 310 310 310 310 310 309 308 311 314 315 313 311 311 311 311 312 313 316 320 322 323 323 321 321 320 319 319 320 322 327 330 331 332 332 332 332 331 330 329
318 318 318 319 319 320 321 321 323 324 326 326 326 325 322 319 312 308 308 308 309 309 309 310 310 311 310 310 309 308 309 313 315 314 312 311 311 312 312 314 318 321 323 322 321 320 320 320 320 322 324 327 331 331 331 332 332 332 331 330 327 325
318 318 318 318 318 320 320 321 322 323 325 326 327 325 322 319 311 308 309 309 309 309 310 310 310 311 311 310 310 309 308 311 314 314 313 311 311 312 312 315 320 322 322 322 322 321 322 323 324 327 329 331 331 331 332 332 332 331 330 329 326 323
318 318 318 318 318 320 320 321 322 322 324 326 327 325 322 318 310 308 309 309 310 310 310 311 311 311 311 311 310 309 308 309 312 314 313 312 311 311 312 316 321 322 321 322 324 324 325 327 328 330 331 331 331 332 332 332 332 331 330 327 324 321
319 318 318 318 318 319 320 321 321 322 324 325 327 325 323 318 310 308 309 309 311 312 312 312 312 312 311 311 311 310 309 308 309 312 313 312 312 312 313 317 322 321 319 321 324 326 328 329 330 330 331 331 331 332 332 332 331 331 329 326 324 322
321 319 319 318 318 318 319 321 322 323 324 325 327 325 322 317 309 308 309 310 313 315 316 317 317 315 313 312 312 311 310 309 308 309 311 312 313 313 314 317 319 317 316 319 323 327 329 330 330 330 331 331 332 332 332 332 331 331 329 326 326 323
323 321 319 318 318 318 319 320 322 323 323 325 326 324 321 316 309 308 310 312 316 319 321 323 325 324 320 315 313 312 311 310 310 309 309 311 312 313 315 316 317 319 320 323 326 328 330 330 330 331 332 332 332 332 332 332 331 330 328 326 326 324
326 322 319 319 318 318 319 320 321 322 323 325 325 323 321 315 310 309 310 313 319 323 325 328 330 330 327 322 315 313 313 313 312 311 310 311 313 313 315 318 322 326 327 328 330 330 331 331 331 332 332 332 332 332 332 332 331 330 326 324 324 322
326 323 320 319 318 318 319 320 321 322 323 324 325 323 320 315 310 310 311 315 321 324 328 330 331 331 330 329 323 316 314 315 314 315 314 315 317 319 322 326 329 330 331 331 331 331 331 331 332 332 332 333 332 332 332 331 331 328 324 323 321 320
324 323 321 319 318 318 318 320 321 323 323 324 324 323 321 315 311 311 311 314 318 323 329 331 331 331 330 330 330 324 321 321 320 319 320 321 324 326 328 330 331 331 332 332 332 332 332 332 333 333 333 333 332 332 331 331 329 326 323 322 320 318
323 322 321 319 318 318 318 320 322 323 323 324 324 323 321 316 312 312 312 315 320 324 330 332 331 332 330 330 331 330 329 328 328 327 326 326 328 329 330 331 332 332 332 333 333 333 333 333 333 333 333 332 332 332 331 330 327 325 324 321 318 316
322 321 320 319 318 318 320 321 323 325 324 325 325 324 322 317 313 312 314 321 326 328 331 333 332 332 331 331 332 332 332 332 332 332 331 331 331 332 332 332 332 332 332 333 333 333 333 333 333 333 332 332 331 331 330 328 326 325 324 320 317 312
324 323 320 319 319 319 321 323 325 326 326 326 328 326 322 317 313 312 317 325 328 328 331 333 333 333 333 333 333 333 333 332 333 334 335 334 334 333 334 334 334 333 333 333 333 333 333 332 332 332 332 331 331 330 329 327 326 325 322 319 314 307
328 327 325 322 320 321 323 325 327 328 327 328 330 328 323 317 313 314 320 325 326 326 329 332 333 334 334 334 334 333 333 333 333 335 335 335 335 334 334 334 334 334 333 333 333 333 332 332 332 332 331 331 330 329 327 326 326 324 320 316 309 302
332 333 332 327 323 323 325 327 329 329 329 330 331 329 324 318 315 317 322 324 325 326 330 332 333 333 334 334 334 334 333 333 334 335 336 335 335 335 334 334 334 334 333 333 333 333 332 332 332 331 331 330 329 328 326 326 325 322 318 311 303 301
336 336 336 332 327 326 327 329 330 330 330 331 332 330 325 321 319 320 324 325 324 328 331 332 332 333 333 334 334 334 333 333 333 335 335 335 335 335 335 334 334 334 334 333 333 333 333 332 331 330 330 329 328 327 326 326 324 320 315 306 301 301
338 338 338 334 330 328 329 330 331 332 332 332 333 331 326 324 324 324 325 324 324 328 331 332 333 333 333 333 334 334 333 332 333 335 335 335 335 335 335 334 334 334 333 333 333 332 333 332 331 330 329 328 326 326 325 324 321 317 309 302 300 300
339 339 338 335 331 330 331 332 332 333 333 333 334 333 328 326 326 326 325 324 325 328 331 333 334 334 333 333 334 333 333 332 333 334 335 335 334 334 334 334 334 334 333 333 332 331 331 331 330 328 327 326 326 325 324 322 319 313 304 300 300 299
339 339 338 335 332 331 332 333 333 334 333 333 334 334 331 327 326 326 326 326 327 329 331 333 334 334 334 334 333 333 333 333 333 334 335 334 334 334 334 334 334 334 333 333 331 331 330 330 329 328 326 325 324 324 322 320 317 309 301 300 300 299
340 339 338 336 333 331 332 333 334 334 333 332 333 334 332 329 327 327 327 327 328 328 330 332 333 334 334 334 333 332 332 333 332 333 334 334 334 334 334 334 334 334 333 332 331 331 330 329 328 328 327 326 324 322 320 318 315 305 300 300 299 299
340 339 338 336 335 333 332 332 334 335 334 333 333 334 334 332 330 329 328 328 329 329 329 331 333 334 334 334 332 331 332 333 332 333 333 334 334 334 335 334 334 333 332 332 331 330 329 329 328 328 327 325 323 320 318 317 313 304 300 300 299 299
340 340 338 336 336 335 332 333 335 336 335 334 334 335 335 333 332 331 329 329 330 330 331 332 333 335 335 333 332 332 332 333 333 333 333 334 334 334 334 334 333 332 331 331 330 330 329 329 329 328 326 324 322 319 317 316 312 305 300 300 299 300
340 340 338 337 336 335 334 334 336 337 336 336 336 336 336 334 332 331 330 331 331 331 332 332 334 335 335 333 332 332 333 334 334 334 334 334 334 334 334 333 333 331 330 330 329 329 328 328 328 328 327 325 321 318 316 315 311 306 302 300 300 301
340 340 339 338 337 336 335 334 336 336 336 336 337 336 335 333 332 330 330 332 332 331 332 333 334 335 335 333 332 332 333 334 335 334 334 334 333 333 333 332 332 331 330 329 329 328 327 326 327 328 328 327 324 321 318 314 310 306 302 300 301 303
340 340 339 338 337 337 336 334 334 335 335 336 336 335 334 333 331 329 331 332 332 331 332 333 334 335 335 334 332 332 334 335 335 334 334 334 332 331 330 330 330 329 329 329 329 329 327 325 326 327 328 328 327 324 320 317 314 310 305 302 302 304
341 340 339 338 338 337 336 335 334 334 335 336 335 334 333 332 331 331 332 333 332 330 332 333 334 335 335 334 332 332 334 335 335 335 334 333 332 331 330 329 329 329 329 329 329 329 328 326 325 325 326 327 326 324 320 319 319 317 312 307 305 305
341 341 340 339 338 338 337 336 335 334 335 335 335 334 333 333 332 332 333 333 331 330 331 333 334 335 334 334 332 332 333 334 334 333 332 331 332 332 331 331 330 330 329 329 329 329 328 327 326 325 325 325 324 322 320 319 321 320 317 312 308 306
340 341 340 339 339 338 337 337 336 335 334 334 334 334 333 333 333 333 333 333 332 330 330 332 333 334 334 334 333 332 332 333 333 332 331 331 331 332 332 331 329 328 327 327 327 327 327 327 326 325 325 325 323 321 320 319 320 320 319 316 313 310
340 341 340 340 339 338 338 337 337 336 334 333 333 333 332 333 333 333 333 333 331 330 330 330 332 334 335 334 333 333 332 333 333 333 332 332 332 333 331 327 326 325 324 324 324 325 326 326 326 325 325 324 322 321 319 318 318 318 319 319 317 315
340 341 341 340 339 339 338 337 337 336 335 334 333 331 331 332 332 333 333 332 332 331 330 330 332 334 335 334 333 333 333 333 333 333 333 333 333 332 329 325 324 324 324 323 322 322 323 324 324 323 323 321 320 319 317 316 315 315 317 318 318 317
341 341 341 340 340 339 338 337 337 336 335 335 333 331 331 331 331 331 332 332 331 331 330 330 331 333 334 333 333 332 332 332 333 333 333 333 332 331 329 325 323 323 323 322 320 319 319 319 319 319 319 319 318 316 313 311 310 311 315 316 316 315
341 341 341 340 340 339 338 337 337 336 335 335 334 332 331 331 330 330 331 331 330 330 330 330 330 332 333 333 333 333 332 332 333 333 333 333 332 331 328 324 320 321 322 320 317 315 315 314 315 314 315 315 313 311 307 306 306 308 312 313 313 312
341 341 341 340 340 340 338 337 337 336 336 335 334 333 332 330 330 330 331 331 330 330 331 331 330 332 333 333 333 333 333 333 333 333 333 333 332 330 327 322 318 319 320 318 315 313 312 311 311 310 310 311 309 306 303 303 304 306 308 308 308 309
341 341 341 340 340 340 339 338 337 336 335 335 334 333 333 332 330 330 331 331 331 331 332 332 332 332 332 332 333 333 333 332 333 333 332 332 330 329 325 320 319 320 319 316 313 312 311 310 308 307 307 307 306 304 302 302 302 303 304 304 304 306
341 341 341 340 340 340 339 338 337 336 335 335 334 334 333 332 330 330 331 331 331 331 332 332 333 332 332 332 333 333 333 333 333 332 331 330 329 327 323 319 321 322 318 313 312 310 309 307 305 304 304 304 303 302 302 302 302 302 302 302 302 303
Wind_Speed
29 28 26 24 22 21 20 20 19 18 17 16 15 14 13 12 12 12 12 12 11 10 9 8 8 7 7 8 9 11 14 16 18 19 18 18 18 18 17 16 14 13 11 10 9 8 6 5 4 4 3 2 3 3 3 4 6 7 7 7 6 5
30 28 27 25 24 22 21 21 20 20 19 18 17 15 14 13 12 12 13 13 12 11 10 9 8 7 7 8 9 11 14 15 17 19 18 17 17 17 16 16 14 13 11 10 9 8 7 5 5 4 3 2 2 3 4 5 6 7 6 6 5 4
30 29 27 26 25 24 23 22 22 21 20 19 18 16 14 13 12 13 13 13 12 12 11 10 9 8 8 7 8 10 13 15 17 18 18 17 16 16 16 15 14 13 12 10 9 8 7 6 5 4 2 2 2 3 4 6 6 6 6 5 5 5
30 29 28 27 26 25 24 23 22 22 21 20 18 16 15 13 13 14 14 14 13 13 12 11 10 9 9 8 8 9 12 15 16 17 17 16 16 15 15 14 14 13 12 10 9 8 7 6 4 3 2 1 2 3 5 5 5 5 5 5 5 5
31 30 29 28 27 26 25 24 23 22 21 20 18 16 15 14 14 15 15 14 14 13 12 11 10 9 9 8 8 9 11 14 16 17 17 16 15 15 14 14 14 13 11 10 10 9 7 5 4 3 2 2 3 4 5 5 4 4 5 6 7 7
31 31 30 29 27 27 26 25 24 23 21 20 19 17 16 15 16 16 16 15 14 14 13 12 11 10 9 9 8 9 10 12 15 16 16 16 16 15 15 15 14 13 11 11 10 9 7 5 4 3 3 3 4 5 5 4 4 5 6 7 9 9
32 31 30 29 28 28 27 26 24 23 22 21 19 18 16 16 17 17 16 16 15 14 13 12 11 10 10 9 9 9 10 11 13 15 16 16 15 15 15 15 14 13 12 11 10 9 8 6 5 4 4 5 5 5 5 5 5 5 7 9 10 10
32 32 31 30 29 29 28 26 25 24 22 21 20 19 17 17 17 18 17 17 16 14 13 12 11 11 10 10 10 9 9 10 12 13 15 15 15 15 15 15 14 12 12 11 10 9 8 7 6 5 5 5 5 5 5 6 6 7 9 10 10 9
32 32 32 31 30 30 29 27 26 25 23 22 21 19 18 18 18 19 18 18 17 15 14 13 12 11 10 10 10 10 10 10 10 11 13 13 14 14 14 14 13 12 11 10 10 8 8 8 7 6 5 4 4 5 5 6 6 8 10 10 10 9
32 32 32 31 30 30 30 28 27 25 23 23 21 19 18 19 19 19 19 18 17 15 14 13 12 11 11 11 10 11 11 11 10 10 11 12 12 13 13 13 12 11 10 10 9 8 7 8 7 7 5 4 4 5 5 5 6 9 10 10 10 9
32 33 32 32 31 31 30 29 27 24 23 23 21 20 20 19 19 19 19 19 17 15 14 13 12 11 11 11 11 11 11 11 11 10 11 11 12 12 13 12 11 11 10 9 8 7 7 7 7 6 5 4 4 5 4 5 7 9 10 10 10 10
32 32 32 32 31 31 30 29 26 25 24 22 21 20 20 20 20 20 19 19 17 15 14 14 13 11 11 11 12 12 12 11 10 10 11 11 12 12 12 11 11 11 10 9 8 7 7 6 6 5 5 5 5 4 4 5 7 9 10 11 10 10
32 32 32 32 31 31 30 28 26 25 24 22 21 21 21 20 20 20 20 19 18 17 16 15 14 12 11 11 11 11 11 12 11 11 11 12 12 12 12 12 12 12 10 9 8 7 6 6 6 6 6 5 5 4 4 6 8 9 11 11 10 10
31 32 32 32 31 31 30 28 27 25 24 23 22 21 20 20 20 20 20 19 17 17 17 16 14 13 12 11 11 11 11 12 12 12 12 13 13 12 13 12 13 12 11 10 8 7 6 6 7 6 7 6 5 4 5 6 8 10 11 11 10 9
31 31 31 32 31 31 30 29 27 26 25 23 22 21 21 21 21 20 20 19 17 17 17 16 14 13 11 10 10 10 11 12 12 12 12 13 13 13 13 13 12 11 11 10 9 8 7 7 7 7 7 6 5 5 5 6 8 11 11 11 9 6
31 30 31 31 32 32 31 29 28 27 25 24 22 21 21 21 21 21 20 19 17 17 17 15 13 12 11 9 9 10 11 12 13 13 12 12 12 12 13 12 11 10 9 9 9 9 8 8 8 8 8 6 6 5 6 7 9 11 11 9 6 5
31 30 30 31 33 33 31 30 29 27 26 25 23 22 22 22 22 21 20 19 18 18 17 14 12 11 10 9 9 10 11 13 13 13 12 12 12 12 11 11 10 9 9 9 9 9 9 9 10 10 8 7 6 6 7 8 10 11 9 7 5 3
30 28 28 31 33 33 32 31 29 27 26 25 24 23 22 23 23 22 21 19 19 19 17 14 12 11 11 11 10 11 12 13 14 13 13 13 12 12 11 11 10 10 9 9 9 10 10 11 11 11 9 8 8 7 8 9 10 10 8 5 4 3
30 28 28 30 33 33 32 32 30 28 27 27 25 24 23 24 24 23 21 20 20 19 17 14 12 12 12 12 12 12 13 14 14 14 14 14 13 13 13 12 12 11 10 10 9 10 11 12 12 11 10 9 9 8 8 9 9 8 6 4 3 2
32 30 29 31 33 34 34 34 32 31 30 29 27 26 25 25 24 23 21 20 19 18 16 14 12 12 13 12 12 13 14 14 14 14 15 14 13 13 13 12 12 12 11 11 10 11 12 13 13 12 11 10 10 9 9 8 8 7 4 2 1 1
34 33 32 33 35 37 38 37 36 35 33 32 30 28 26 26 26 23 22 20 19 18 17 14 13 13 13 13 13 13 14 14 15 15 15 14 14 14 13 12 12 12 12 13 12 13 14 14 13 13 12 11 10 10 9 8 8 6 4 2 1 1
35 35 35 34 35 38 38 38 38 37 35 33 32 30 28 28 26 24 22 20 18 18 17 15 14 13 13 13 14 14 14 14 15 15 15 15 15 14 14 13 13 14 13 13 13 14 15 15 15 14 12 10 10 10 10 10 9 7 5 3 2 2
37 37 36 35 34 36 37 38 37 35 34 33 32 31 29 27 25 24 22 20 18 17 17 17 15 14 14 14 14 14 14 14 14 15 15 15 16 15 14 14 14 14 14 14 14 15 16 16 16 14 11 10 10 10 10 12 11 8 6 5 4 4
38 37 37 35 34 34 36 37 35 33 33 32 31 31 29 28 26 24 23 20 18 18 18 17 16 15 14 15 15 15 14 14 14 14 15 15 16 16 16 16 15 15 14 15 16 17 17 17 18 16 12 10 11 10 11 12 11 10 8 7 7 7
39 38 37 35 34 35 36 36 36 35 34 33 32 32 32 30 28 26 25 22 19 19 19 18 16 16 15 15 15 15 14 14 14 14 14 14 15 15 16 16 16 15 15 15 16 17 18 19 19 19 16 13 11 10 11 11 10 11 10 9 9 9
40 38 37 36 35 36 37 38 39 39 38 37 36 35 34 32 30 28 25 22 20 20 20 18 17 17 16 16 16 15 14 14 14 14 14 14 14 15 15 16 16 16 16 16 16 17 18 19 20 21 20 19 16 14 12 10 10 11 10 11 11 10
41 39 38 37 37 37 38 39 40 41 40 39 38 36 34 30 29 27 24 21 21 22 21 19 18 17 16 16 16 15 14 14 14 15 15 14 12 12 13 14 15 15 16 17 17 18 18 18 20 21 21 21 21 19 16 12 11 10 10 12 13 12
43 40 38 38 38 38 38 40 41 41 40 38 37 35 32 29 27 25 23 22 22 23 22 21 19 18 17 17 17 16 15 15 16 16 15 13 12 11 12 13 14 14 16 18 18 18 17 18 19 19 20 21 20 20 18 14 12 10 9 11 14 15
44 42 40 39 38 38 38 39 40 41 41 39 36 34 31 29 27 25 24 23 23 24 23 22 20 18 18 18 18 17 16 17 16 16 14 13 13 13 12 13 14 15 16 17 17 17 17 17 18 18 19 19 19 19 18 16 14 12 11 11 13 15
46 44 42 40 39 39 39 39 40 40 40 39 38 35 31 28 27 26 25 24 24 24 24 23 21 20 20 20 19 18 17 17 16 15 14 14 15 14 13 13 13 14 15 15 15 16 16 17 18 18 18 18 18 17 17 17 16 15 14 13 13 13
47 46 43 40 39 39 39 40 40 40 40 39 38 36 32 29 28 27 26 25 24 24 24 24 22 21 21 21 19 18 17 17 16 16 16 16 16 14 12 13 14 13 13 13 12 13 16 17 18 19 19 18 18 17 17 17 16 16 15 15 14 13
49 47 44 41 40 40 40 41 41 40 40 39 38 35 33 30 29 28 27 26 24 24 25 24 24 23 23 21 20 19 18 17 17 17 17 17 15 13 12 13 14 12 12 12 12 12 14 17 18 18 19 18 17 17 17 17 15 15 14 13 14 14
50 49 46 43 41 41 41 41 41 41 40 39 37 35 33 31 29 28 27 26 25 25 25 25 25 24 23 22 21 21 19 18 17 17 17 16 14 13 13 14 14 12 11 12 12 12 13 15 16 17 18 17 17 17 16 16 14 14 13 13 14 15
51 49 46 44 42 42 42 42 42 41 41 40 37 35 34 31 29 28 27 26 25 24 24 24 24 23 22 22 22 21 19 17 16 16 15 15 15 14 15 15 14 12 12 12 12 12 13 15 16 17 18 17 17 15 14 14 13 12 13 14 15 16
51 49 47 45 44 43 43 43 42 42 41 40 38 36 33 31 29 28 26 26 25 23 22 22 22 22 21 21 21 20 18 17 16 15 15 16 16 15 15 15 14 13 12 12 13 13 14 15 16 17 17 16 15 13 13 12 12 12 13 14 15 16
51 50 48 46 45 44 44 43 43 43 42 40 39 37 34 32 30 28 26 25 25 24 22 21 22 22 21 21 20 19 18 16 15 15 15 15 15 13 13 14 14 13 13 13 14 14 14 15 16 16 15 14 13 12 12 12 11 12 13 14 15 16
51 50 49 46 46 45 45 44 43 43 42 40 39 37 34 32 30 28 26 25 25 24 22 21 22 22 21 20 19 18 17 16 15 15 14 13 12 12 13 14 14 14 13 14 14 14 15 15 16 15 13 12 12 12 12 12 12 12 13 14 15 16
Wind_Direction
200 198 199 200 201 201 197 196 194 191 190 193 194 194 192 187 185 179 177 177 176 176 174 171 166 159 156 155 161 162 164 169 173 173 172 173 172 172 171 170 170 173 178 184 193 199 198 196 199 208 217 236 259 281 303 323 334 338 339 345 358 24
203 201 200 200 203 203 200 198 195 193 192 194 197 196 194 190 186 181 178 177 176 176 174 174 170 167 163 159 163 165 166 170 175 178 177 176 175 173 173 172 171 174 180 188 198 201 204 207 211 221 230 249 273 300 322 332 336 339 341 349 6 34
205 203 202 202 204 204 203 200 197 196 195 196 199 199 195 191 188 182 178 176 175 176 174 174 174 174 172 166 165 167 169 171 176 180 181 179 177 175 175 173 172 174 180 189 200 204 207 213 218 224 231 256 301 327 329 328 332 337 345 0 15 33
206 205 205 204 205 204 204 203 200 199 197 199 201 201 197 193 189 184 179 177 175 176 176 176 178 180 178 174 168 168 172 175 178 181 183 182 179 178 177 176 174 174 181 190 200 206 210 212 213 218 229 273 312 326 326 325 332 343 355 9 12 17
207 207 207 207 207 205 206 204 203 201 199 202 202 202 199 194 191 186 181 177 176 176 177 178 180 183 181 178 172 168 172 177 180 181 184 184 183 182 181 180 176 178 184 190 200 208 214 212 207 212 229 283 300 313 321 326 334 345 2 13 9 10
208 208 208 209 208 206 207 205 205 203 201 202 203 202 200 196 192 187 182 177 177 176 177 178 178 183 183 179 174 169 170 178 183 183 185 187 187 186 184 183 180 184 190 194 202 210 216 216 216 225 246 280 293 309 317 322 331 342 2 10 8 11
208 208 208 209 208 207 207 206 207 205 203 204 203 202 200 199 194 188 182 177 177 176 176 179 180 181 182 179 176 173 172 178 185 187 188 189 189 188 187 186 186 193 197 198 204 210 218 226 233 244 257 273 288 307 313 314 326 342 359 4 5 9
207 208 207 208 207 207 208 206 206 205 204 204 204 203 200 199 196 189 182 179 178 177 179 181 182 179 181 182 177 176 176 180 186 190 191 191 190 189 189 189 191 197 198 199 204 211 223 235 243 250 256 267 284 301 303 306 322 343 354 355 358 1
206 207 206 207 207 207 208 206 205 206 205 205 205 202 198 200 198 190 184 183 181 181 183 183 184 181 182 186 181 179 180 182 186 188 190 191 190 190 189 189 190 192 194 197 203 214 227 235 239 243 252 266 283 293 293 303 325 343 348 349 353 354
206 206 206 206 206 206 207 206 205 207 206 206 205 199 198 200 199 192 186 186 185 182 183 186 189 185 186 188 184 182 183 187 189 186 184 183 183 184 183 182 185 189 192 198 204 214 225 229 232 239 252 264 278 286 292 312 332 340 346 351 353 350
206 205 204 205 206 206 206 206 205 206 206 206 204 200 199 200 199 195 189 190 189 185 185 191 193 189 189 189 185 184 186 191 192 187 181 178 177 178 177 178 187 193 195 200 203 210 221 226 233 242 250 256 271 282 297 322 334 338 346 351 349 344
206 204 203 204 205 205 206 205 204 204 206 206 203 202 201 201 201 196 192 194 193 191 190 195 197 192 190 188 186 186 189 195 196 190 184 183 183 183 183 187 197 202 202 204 206 210 216 223 237 246 247 254 265 278 300 322 331 339 344 345 345 343
205 202 201 203 204 205 206 204 202 202 204 204 202 204 203 202 202 199 196 196 194 193 194 198 199 194 189 187 187 189 193 197 199 196 193 196 197 197 198 202 208 210 210 213 216 218 219 221 231 242 247 252 256 268 297 318 328 335 338 340 343 344
203 201 200 201 203 204 205 203 200 201 202 202 203 204 204 203 204 201 197 195 193 193 196 199 198 196 193 190 192 196 199 201 203 203 204 207 208 210 212 214 216 217 219 221 221 225 227 225 226 234 241 246 251 265 293 311 324 331 334 337 340 343
200 199 199 200 202 203 204 202 199 199 200 201 204 206 205 204 204 202 197 195 195 196 198 199 197 196 195 196 199 203 206 206 206 207 209 211 213 216 218 219 220 221 225 223 219 222 223 224 228 234 236 241 249 264 288 307 322 327 329 331 335 345
198 197 198 199 201 202 203 201 199 199 199 200 205 208 205 204 206 204 199 198 199 200 201 199 197 197 196 200 207 209 211 209 207 208 210 211 213 217 219 219 218 218 226 227 222 219 216 219 227 232 233 238 246 265 289 306 317 320 322 326 337 355
199 197 199 199 200 201 201 201 200 199 199 200 206 209 206 205 207 206 203 202 202 203 203 202 201 201 200 203 209 213 215 211 207 208 210 211 210 214 218 220 218 215 222 229 229 224 219 218 220 225 229 235 248 265 283 299 309 312 317 325 342 355
201 200 201 201 200 199 200 200 200 200 200 201 206 209 207 206 209 210 208 206 204 204 204 205 204 204 206 208 211 213 215 213 208 208 211 212 211 213 215 218 222 221 218 223 234 235 228 220 216 219 223 229 244 259 274 290 301 307 313 324 343 352
203 203 204 203 200 199 200 200 201 201 201 202 205 208 207 208 211 211 210 206 205 204 205 209 209 208 211 213 214 214 216 215 210 208 210 213 214 215 214 216 221 224 222 221 231 239 232 222 215 215 222 230 238 252 268 283 293 299 303 315 337 351
206 204 204 202 199 198 199 200 201 201 201 202 204 206 207 210 211 210 209 206 206 206 207 212 214 215 217 216 217 217 219 218 212 210 212 215 218 218 217 217 221 225 228 226 224 227 228 224 218 213 217 229 239 250 263 275 284 288 286 284 307 25
208 205 203 200 197 197 199 199 201 202 202 201 203 205 206 210 212 209 207 207 208 209 210 216 220 221 220 219 220 219 220 218 213 212 214 216 218 219 219 218 221 225 231 233 225 221 222 223 223 219 218 227 241 253 263 271 275 274 267 250 213 151
210 208 205 201 198 198 200 202 203 203 202 201 203 204 205 209 211 210 208 208 210 211 215 221 226 226 224 223 223 221 221 218 214 213 212 213 216 220 220 220 223 225 228 233 232 228 225 224 226 232 237 239 242 249 259 264 263 258 249 233 206 178
214 212 207 203 202 201 203 205 206 206 205 204 205 205 205 209 212 211 211 211 213 215 218 223 227 230 228 227 225 222 221 217 215 215 212 212 217 220 221 223 227 230 230 228 229 232 232 232 231 234 237 241 244 246 252 256 251 243 235 223 208 186
215 215 210 205 205 205 205 207 207 209 210 208 208 207 207 209 212 213 213 214 215 217 219 221 224 229 230 230 227 222 218 216 216 217 216 218 221 222 223 226 229 234 236 231 231 234 237 237 237 237 234 235 242 243 249 255 244 231 225 216 204 189
216 216 213 208 207 207 206 206 205 207 210 211 210 210 209 208 210 213 214 215 217 218 219 221 224 227 230 230 227 221 217 215 216 218 219 222 225 228 230 233 236 239 241 242 243 243 243 241 239 240 239 238 239 241 253 258 236 225 223 212 198 190
215 216 214 211 210 209 208 207 206 207 208 209 209 211 211 209 208 212 214 215 219 220 220 222 226 228 229 230 228 222 217 214 215 216 217 221 228 233 236 238 241 244 247 251 252 250 248 244 239 239 239 241 245 251 261 255 227 219 217 209 200 192
215 216 215 213 213 212 210 210 211 211 211 211 210 211 212 210 211 214 215 216 220 221 220 223 226 229 230 229 227 223 218 215 216 216 218 223 231 237 240 241 243 248 251 252 252 252 250 244 239 239 240 243 246 251 257 253 237 227 217 209 204 199
216 216 216 216 215 215 214 213 213 214 215 215 214 215 214 212 212 215 218 220 221 221 222 224 226 229 230 229 228 224 220 218 219 222 226 231 239 242 243 243 246 252 254 255 256 255 251 245 243 243 243 245 247 250 252 253 249 242 235 223 211 206
216 216 217 218 218 218 217 216 215 215 216 217 218 219 218 215 214 216 219 222 222 222 223 225 227 229 229 228 229 225 223 223 223 227 233 238 243 245 247 250 253 256 258 260 260 257 250 246 247 248 249 250 251 252 251 249 246 240 239 235 223 218
216 216 218 219 221 221 220 219 218 217 217 217 218 219 219 218 217 218 220 221 222 223 225 227 229 230 230 229 227 226 225 226 228 232 238 242 245 248 252 257 260 263 264 262 257 252 247 246 247 249 251 253 254 254 253 251 248 242 239 238 236 233
216 217 218 219 222 222 222 222 221 220 219 219 218 217 217 216 217 218 220 221 222 224 227 230 230 231 233 230 228 229 228 227 230 235 241 246 249 252 254 256 260 263 265 262 251 244 244 245 247 248 250 252 255 258 260 261 257 253 250 248 248 247
216 217 217 219 222 223 224 224 223 222 221 221 220 218 217 215 215 217 220 221 222 225 227 229 230 231 233 233 232 232 231 229 230 234 241 247 251 255 253 254 260 265 261 255 248 242 243 247 250 253 255 257 261 264 267 267 261 252 250 254 257 255
216 216 216 218 221 223 225 226 225 223 223 223 222 221 219 218 218 219 220 221 223 225 227 228 229 230 232 234 234 234 234 234 232 234 240 245 250 253 252 251 255 264 260 251 248 246 246 251 255 258 260 262 265 267 268 267 260 248 242 247 250 247
216 216 216 218 221 224 225 226 226 224 224 224 224 224 222 222 222 222 223 224 226 229 231 232 233 233 234 234 235 235 236 236 235 237 240 244 250 251 249 246 247 256 257 248 244 244 246 252 255 258 260 261 262 264 265 263 258 249 242 245 244 239
215 216 216 217 220 224 225 226 226 225 225 225 226 226 225 225 226 226 227 227 229 233 235 237 237 238 238 237 237 237 237 237 238 240 244 249 254 252 247 243 244 251 253 245 241 242 246 251 254 257 258 258 258 259 259 254 252 249 247 249 246 239
215 216 216 217 220 223 225 225 225 225 225 225 226 227 227 227 228 229 229 229 232 235 238 240 240 239 239 238 238 239 239 239 240 243 249 255 258 256 248 243 248 254 251 245 243 243 247 250 253 254 252 250 251 253 252 248 248 250 250 251 245 238
214 215 216 217 220 222 224 225 225 225 225 225 226 227 227 229 230 230 229 230 233 236 239 242 242 240 239 238 237 237 237 237 240 247 254 257 256 253 246 242 249 254 247 243 244 245 247 248 248 246 244 245 247 248 247 245 248 249 249 248 244 238